GFSNGP_850_spd_072.txt.gz
Wind_Speed
5 11 11 12 13 12 15 16 6 3 4 9 4 4 6 11 17 29 33 34 33 30 27 24 20 16 10 5 7 14 21 27 30 29 29 29 30 30 30 33 40 42 44 45
4 4 6 13 13 13 12 17 17 17 13 4 11 8 12 9 17 26 29 28 26 23 26 25 22 16 12 7 4 2 6 14 17 24 30 34 34 32 33 35 36 37 41 46
4 7 11 6 7 11 7 15 18 8 4 8 8 8 8 17 21 23 23 20 21 22 22 22 21 18 17 14 7 3 2 2 15 18 18 25 30 35 40 41 39 40 40 40
3 6 4 4 17 12 14 12 8 5 10 14 20 17 17 19 25 20 20 21 21 20 20 20 20 20 18 17 15 12 10 6 5 6 12 16 22 28 35 38 43 45 45 43
2 2 10 15 6 7 3 4 3 15 8 23 30 27 20 20 22 21 18 16 16 16 18 18 19 20 17 16 16 16 17 17 16 14 11 13 13 19 27 33 38 44 46 48
2 2 4 3 6 7 6 3 6 15 19 19 15 5 7 14 17 19 16 16 17 17 16 15 16 15 14 17 18 19 20 19 19 18 17 16 16 17 19 24 33 35 34 42
5 4 7 7 5 5 2 1 3 20 19 16 7 13 20 14 17 14 13 14 13 14 17 19 18 17 16 17 18 19 19 19 18 17 16 16 14 16 18 18 18 29 34 34
4 4 8 8 6 8 6 13 14 23 27 31 29 22 18 15 14 12 12 13 15 17 19 18 18 17 18 19 19 17 17 17 18 18 16 13 12 11 10 8 7 10 14 19
6 6 2 16 9 22 32 20 13 23 26 29 23 17 15 16 14 14 13 13 13 15 15 15 17 16 16 16 15 16 17 18 20 19 18 16 13 14 14 13 10 10 9 10
3 3 9 20 20 23 26 28 24 22 25 21 21 16 16 14 13 13 13 13 13 13 15 17 16 16 17 16 15 14 15 17 19 21 22 22 22 22 21 20 20 20 20 19
4 11 21 20 20 15 23 24 23 20 19 17 14 15 13 14 13 12 13 13 13 16 18 19 17 17 15 15 14 15 16 17 19 21 22 24 26 27 26 26 23 24 25 24
3 9 15 11 15 13 19 18 15 16 17 15 12 14 13 16 14 13 15 15 17 18 19 20 20 20 19 16 15 15 17 18 19 20 21 23 25 27 26 25 25 25 23 22
8 21 21 13 15 10 12 13 13 13 13 14 14 13 14 17 15 16 16 16 18 19 19 18 18 19 19 19 16 16 18 18 17 17 18 18 19 20 22 20 18 19 18 17
16 17 14 9 9 8 9 11 8 11 12 12 13 12 13 15 15 15 17 17 16 16 16 16 15 17 16 14 13 14 14 14 14 13 13 13 13 14 13 14 14 15 14 13
15 12 16 15 11 8 6 5 7 10 11 11 10 12 12 15 16 16 15 14 13 13 14 13 12 13 11 10 8 8 8 9 9 8 8 9 9 9 9 10 11 11 9 8
7 9 9 10 10 7 5 5 8 11 11 12 11 12 12 13 14 13 12 11 8 12 12 11 10 10 9 8 7 6 7 6 6 7 7 7 7 7 7 8 8 9 8 10
7 7 8 11 9 9 9 10 11 12 13 13 14 14 14 14 14 13 12 10 10 9 8 8 9 7 6 5 4 5 4 3 4 4 5 6 6 6 7 7 8 9 10 9
5 8 9 9 10 12 12 12 13 13 12 12 11 11 11 11 11 10 8 7 6 5 5 5 4 4 5 5 5 4 3 3 3 4 4 4 4 5 5 6 7 7 8 8
8 12 12 11 10 11 11 11 12 12 12 10 11 12 10 9 8 6 5 3 3 3 5 4 3 3 4 4 4 5 5 4 4 5 5 4 3 4 4 5 6 6 6 5
10 10 10 11 11 12 16 16 16 16 14 12 12 11 10 10 8 5 4 3 5 5 4 3 3 4 5 4 4 4 3 3 4 5 4 4 4 4 4 4 4 5 5 7
13 13 16 17 18 17 16 15 15 14 13 9 7 7 6 6 5 6 4 3 5 4 3 2 2 3 5 5 5 4 3 2 1 2 2 3 3 3 2 3 3 4 4 5
16 17 17 16 16 16 14 12 11 11 10 9 7 7 4 3 2 3 3 3 3 3 2 1 2 4 4 4 4 3 3 3 3 3 3 4 4 5 5 6 6 7 9 10
15 15 14 13 12 12 10 8 6 5 4 4 3 3 3 3 3 4 3 2 2 1 0 1 2 4 5 4 3 4 4 4 4 6 6 6 7 7 7 7 8 9 10 11
13 12 12 10 9 7 6 7 5 5 4 4 3 4 4 4 3 4 4 2 1 2 2 2 3 5 5 5 7 6 6 6 5 5 7 8 9 9 9 10 11 12 12 10
11 9 8 8 7 6 4 4 3 3 3 5 5 7 7 7 6 3 4 3 3 4 5 5 5 6 6 7 5 7 9 9 8 9 9 9 10 12 12 13 13 14 14 13
7 5 4 4 2 1 1 3 3 3 4 6 7 7 9 7 4 4 2 4 7 7 8 9 7 7 9 9 8 7 10 11 11 12 12 11 11 12 14 15 15 14 13 14
5 4 4 3 4 5 5 4 5 6 7 9 10 9 8 9 8 8 8 8 9 7 7 10 11 10 10 11 13 14 15 15 14 14 14 14 14 15 16 16 15 14 15 16

GFSNGP_850_spd_075.txt.gz
Wind_Speed
6 8 6 10 14 12 12 9 5 3 7 7 9 8 8 12 15 22 26 30 30 29 28 26 23 18 12 7 7 10 10 9 11 15 18 21 23 24 24 26 28 28 33 37
4 7 8 13 13 14 13 13 8 10 19 2 7 15 12 8 14 18 20 19 24 26 26 24 21 17 13 11 10 6 5 11 15 17 18 19 20 22 26 30 31 32 35 36
3 5 9 7 2 9 10 10 8 8 9 6 7 5 18 17 17 12 11 18 20 24 26 24 22 16 15 12 8 6 6 5 6 9 10 14 20 23 25 28 29 34 37 38
3 4 4 5 16 5 8 12 12 8 6 5 16 21 17 15 21 14 14 21 19 21 22 20 17 17 14 12 10 8 6 4 1 2 4 7 11 15 21 25 29 32 35 35
2 2 9 12 3 7 8 4 3 4 13 21 29 27 19 16 17 15 14 15 17 18 17 16 16 15 13 11 11 9 9 8 7 5 5 4 5 10 12 14 19 27 31 32
2 1 4 4 10 5 5 5 4 4 17 18 18 6 2 10 11 14 16 17 16 16 14 14 15 13 12 12 12 12 13 12 12 10 9 8 8 9 9 9 11 12 19 26
3 4 7 9 12 17 1 2 11 8 28 18 4 8 23 16 14 13 13 15 13 13 14 15 13 13 14 14 16 16 15 13 12 12 12 11 10 9 10 9 9 6 6 9
2 3 9 8 11 4 2 10 15 13 21 31 31 25 18 14 13 11 12 12 11 11 12 12 11 11 13 14 16 15 15 14 14 15 15 14 12 10 8 8 7 7 7 8
5 4 4 10 12 16 6 20 23 19 22 24 30 21 18 14 12 10 11 11 10 11 12 12 11 12 13 14 12 13 12 14 15 15 15 15 13 13 13 12 12 13 14 15
1 6 7 12 18 21 18 20 22 24 21 14 19 16 17 14 12 11 11 12 11 12 15 15 14 13 14 11 10 10 10 12 14 16 16 17 18 19 20 20 20 19 20 21
5 6 13 15 16 17 16 18 21 18 17 17 16 15 13 13 11 10 11 12 13 15 16 16 13 13 12 12 9 10 12 14 16 17 19 20 21 22 21 22 19 20 20 19
2 3 12 10 12 13 16 18 14 16 17 14 12 14 13 15 13 14 15 15 16 17 16 17 16 15 14 12 12 12 15 16 17 17 18 19 19 19 18 17 16 16 16 15
1 16 23 18 15 13 17 16 11 12 13 14 14 13 14 18 18 18 17 17 17 17 16 15 15 16 16 14 12 13 15 15 15 14 14 14 14 13 13 12 9 11 11 11
8 3 13 9 13 13 15 15 12 13 14 14 13 12 14 17 16 17 18 17 15 14 14 13 12 13 12 10 9 10 11 11 10 10 10 10 10 10 9 8 8 9 9 8
14 13 15 15 13 14 12 10 9 11 11 12 11 12 13 16 16 16 15 13 12 11 12 10 10 11 11 9 7 8 8 9 8 8 7 7 7 7 7 8 8 9 7 6
5 8 8 7 8 8 7 7 9 12 12 13 12 12 13 14 15 14 12 10 7 9 10 8 8 9 7 6 6 6 7 7 7 7 6 6 6 6 7 7 7 8 9 10
4 4 5 8 8 8 8 7 8 11 12 11 12 12 11 12 13 12 11 9 7 7 6 5 7 7 6 6 6 7 6 6 6 5 5 5 6 6 7 8 10 10 12 12
2 3 3 3 4 4 6 6 7 8 9 9 9 9 10 9 10 9 7 6 5 4 4 6 7 7 7 7 7 7 7 6 5 6 6 6 7 7 8 9 10 11 11 11
4 6 6 6 5 5 6 6 7 7 8 7 8 8 7 6 6 5 5 2 2 3 4 5 6 7 7 6 7 7 6 6 6 5 6 6 6 7 7 7 7 8 8 9
5 5 4 5 5 4 7 8 9 9 8 7 6 5 5 6 6 5 4 4 4 3 4 5 6 6 7 7 6 6 6 6 5 5 5 5 6 6 7 7 7 8 9 9
5 5 7 10 13 13 12 12 10 9 8 6 3 2 3 3 4 4 5 5 4 3 3 4 5 6 6 6 6 6 5 5 5 5 5 6 6 7 7 8 8 9 10 11
13 13 14 14 13 14 12 9 8 6 5 3 2 2 3 5 6 6 6 4 4 3 3 4 5 6 6 5 5 6 5 5 6 6 7 7 7 7 7 8 8 9 10 11
14 14 14 12 12 11 10 7 5 3 1 1 3 4 5 5 5 5 5 4 3 4 4 5 5 6 6 6 6 7 6 7 7 7 8 8 8 9 9 9 10 10 11 11
14 12 11 10 8 7 5 5 4 4 3 3 4 5 5 6 7 7 5 3 2 3 3 4 5 6 7 6 6 6 7 8 8 9 10 10 9 11 12 12 12 12 12 11
11 10 9 8 6 4 3 2 2 2 1 3 5 7 8 8 6 4 3 2 3 4 5 4 5 6 7 6 7 7 7 8 8 8 9 10 9 10 11 12 13 13 14 13
6 4 3 2 1 2 3 4 4 5 5 5 5 6 7 8 7 5 5 5 6 5 6 6 7 8 9 9 8 9 11 12 11 11 12 12 11 12 12 12 13 14 14 14
3 2 1 1 3 4 4 5 7 7 8 9 9 8 7 7 8 7 6 7 8 7 8 9 9 10 9 9 11 11 15 15 13 12 13 15 14 14 15 14 14 13 14 15

GFSNGP_850_spd_078.txt.gz
Wind_Speed
1 3 3 3 8 9 9 11 6 7 7 6 4 6 1 10 14 16 20 22 23 23 23 23 23 21 17 13 10 9 8 9 10 9 7 7 9 11 12 12 13 14 17 18
3 3 4 5 12 10 13 12 13 14 17 9 8 12 11 11 9 15 17 19 21 19 20 19 20 19 16 15 13 10 11 13 11 11 10 11 14 15 15 16 17 18 20 21
3 4 7 5 2 5 6 9 10 10 11 5 2 10 14 19 11 13 17 18 18 20 23 21 20 16 15 14 13 13 11 9 8 8 7 11 13 15 17 17 19 21 24 25
2 3 2 5 13 5 6 6 9 5 0 10 12 18 21 14 18 14 17 15 16 20 20 18 17 19 17 15 11 10 9 7 5 4 4 6 8 10 13 17 19 21 23 25
1 1 6 7 3 6 9 17 7 5 13 17 22 24 17 12 14 16 15 14 15 17 16 13 18 18 16 14 13 11 11 10 8 5 3 1 1 2 6 9 10 11 17 20
2 1 3 5 3 15 6 5 4 3 13 16 17 4 3 11 14 15 14 13 11 10 10 11 15 15 13 13 11 12 12 11 9 8 7 7 7 5 5 4 4 4 5 6
2 2 6 6 12 14 1 4 13 11 18 18 4 8 19 16 16 14 12 12 11 10 11 12 12 12 14 15 17 17 14 13 11 11 11 12 11 9 8 7 6 5 6 6
3 3 7 14 9 4 7 10 12 25 10 24 30 31 23 17 15 12 12 12 10 12 14 13 13 12 15 16 18 16 16 15 15 15 14 13 11 11 11 11 11 12 12 13
5 3 3 8 7 9 8 9 9 23 19 22 25 24 20 15 14 12 12 12 11 13 13 14 13 13 15 16 14 14 13 15 16 15 15 14 13 14 13 12 13 15 16 18
1 2 4 6 8 11 15 19 14 15 22 21 23 20 20 15 13 12 11 12 12 13 15 15 12 11 13 12 13 13 15 17 17 18 17 18 18 18 18 19 18 19 20 21
4 3 6 9 8 9 15 16 17 17 19 20 19 17 15 14 11 11 12 13 14 15 16 16 14 13 13 13 12 13 15 16 16 16 17 18 19 19 19 20 17 18 18 17
1 10 5 9 8 11 19 20 17 17 19 19 15 16 13 15 14 14 16 15 16 17 17 18 16 16 15 15 14 14 14 15 15 15 16 16 15 15 15 13 11 12 13 13
2 12 20 15 13 13 18 18 17 18 15 15 14 15 16 19 17 16 16 16 16 16 16 15 15 15 16 15 13 12 12 12 11 11 11 11 11 10 10 8 6 6 7 8
7 10 14 8 9 12 16 15 13 15 16 14 15 15 16 17 17 17 16 15 14 14 14 13 12 13 14 12 10 8 8 7 6 6 6 6 6 6 6 5 5 7 7 8
16 16 17 15 12 11 11 10 11 15 14 13 14 15 15 17 17 16 15 13 11 11 12 11 11 12 11 10 7 6 6 5 5 4 4 4 4 4 5 5 6 7 7 6
9 11 11 11 10 9 8 8 11 13 13 13 14 13 14 14 14 13 12 10 7 10 10 9 8 9 8 7 6 5 4 4 4 3 4 3 4 5 5 6 6 7 8 9
3 5 7 10 10 9 10 10 11 12 13 13 14 13 12 12 13 12 11 10 9 8 8 7 8 8 6 5 5 4 4 3 2 3 3 3 4 5 6 7 7 8 9 9
4 4 4 5 8 9 11 11 11 11 12 12 12 12 12 11 11 10 8 7 6 5 4 5 6 6 5 4 4 4 3 3 3 2 4 4 4 6 6 7 8 8 9 8
6 6 7 7 7 7 10 11 12 13 13 12 11 11 10 9 8 7 7 4 3 3 5 6 6 6 5 4 4 4 4 4 4 4 4 5 5 5 5 5 6 7 7 8
7 7 7 8 8 7 10 12 12 14 14 10 9 9 8 7 7 6 6 4 3 3 3 4 4 5 5 5 5 4 4 4 3 4 3 4 4 4 4 5 6 7 7 8
7 7 10 13 16 16 15 14 11 11 11 9 6 6 6 7 7 6 6 5 4 3 3 4 5 6 6 5 5 5 5 5 4 5 5 5 6 6 7 7 8 9 10 11
14 15 16 15 15 15 13 11 9 9 8 7 7 8 8 8 8 8 7 6 5 4 4 5 6 7 7 6 6 6 6 6 7 7 8 8 8 8 8 9 10 10 11 12
14 14 14 12 11 11 10 8 6 5 5 5 6 7 7 7 7 7 8 6 6 7 7 8 8 9 9 8 8 7 7 8 9 9 9 10 10 10 10 10 11 12 12 12
13 11 10 8 7 6 5 5 4 4 5 5 5 7 8 9 8 8 6 6 5 6 6 7 8 8 9 8 8 8 9 9 9 10 10 11 11 11 11 12 12 13 13 12
10 9 8 7 6 5 4 3 3 2 2 4 5 6 8 9 8 6 6 5 5 6 7 6 6 7 8 8 7 6 7 9 10 10 10 10 10 10 10 11 12 13 14 14
6 4 2 2 2 2 4 5 4 5 6 6 7 8 8 8 7 5 5 5 6 6 6 7 8 9 8 8 8 9 9 12 13 12 11 11 12 13 13 13 14 15 15 15
3 3 2 1 3 4 4 5 7 8 8 9 10 11 9 6 6 6 6 6 7 8 7 9 11 11 11 12 12 13 13 15 15 13 13 15 16 15 14 15 16 17 17 18

GFSNGP_850_spd_081.txt.gz
Wind_Speed
1 2 2 2 6 7 7 8 7 10 14 16 12 6 9 10 13 15 15 16 18 19 22 23 24 22 22 20 19 17 16 13 11 10 9 9 8 8 8 7 6 7 9 11
3 3 2 6 10 8 8 7 14 15 19 15 18 5 12 13 18 13 12 13 15 17 18 21 21 20 19 19 19 17 15 12 10 9 10 11 12 12 12 13 13 12 12 14
3 2 7 3 4 5 3 7 7 8 15 11 4 5 12 15 19 19 11 11 18 20 19 19 20 18 20 20 16 16 15 12 10 7 7 10 11 12 14 15 15 15 17 18
3 2 1 4 7 5 6 6 13 14 7 3 11 16 15 11 17 21 13 15 18 20 20 23 20 19 19 18 16 11 10 9 7 7 5 6 7 8 9 9 11 12 14 16
2 1 7 1 4 6 6 9 17 15 3 9 17 19 15 13 16 20 17 19 18 19 21 21 19 18 18 15 17 14 8 7 8 8 7 6 6 4 3 3 3 3 3 6
2 2 3 3 9 13 7 3 18 19 5 9 12 4 4 9 15 18 18 16 17 18 18 19 19 17 14 18 17 16 14 12 11 11 10 10 10 9 9 8 8 7 6 5
4 3 4 6 16 11 1 6 19 17 20 15 5 8 19 17 19 19 18 15 14 14 14 14 14 15 17 19 21 20 17 15 15 15 14 14 13 12 12 12 11 11 11 12
3 3 4 14 5 5 8 5 9 12 14 26 27 26 22 19 20 18 17 16 15 15 16 15 15 13 16 17 19 16 15 15 15 14 14 14 13 14 13 12 11 13 13 14
4 1 3 5 3 4 7 6 6 10 14 26 28 23 20 21 20 18 17 16 15 16 16 16 15 16 19 20 17 17 17 18 18 17 16 16 16 16 16 16 16 18 18 19
3 4 7 7 7 7 7 12 12 13 12 19 26 22 20 18 17 16 15 15 14 14 16 16 15 16 18 17 16 17 20 21 21 20 19 20 19 19 19 19 18 18 18 18
4 4 3 14 12 8 9 10 13 15 16 16 19 17 17 17 16 15 15 15 15 16 17 17 17 18 17 17 16 18 20 21 20 20 20 19 19 19 18 18 16 16 16 14
2 5 3 7 8 7 12 14 14 15 16 13 14 16 14 17 16 16 17 17 18 19 19 19 18 19 19 18 16 16 17 18 18 17 17 17 16 16 16 15 13 12 12 11
2 6 15 13 12 11 14 13 14 15 15 17 17 15 16 18 17 17 17 17 17 18 17 16 15 16 16 15 13 13 14 14 13 12 12 12 12 11 12 12 10 8 7 7
9 12 8 3 10 12 13 13 13 15 16 16 16 16 16 17 17 17 17 16 15 14 14 13 12 13 14 12 10 10 10 10 8 8 8 8 8 9 8 7 7 7 7 7
13 6 14 14 12 11 10 10 12 14 13 15 14 16 15 16 17 16 14 13 12 11 12 11 10 11 11 10 9 8 8 7 7 6 6 6 6 5 5 5 6 7 7 7
11 13 12 12 10 9 8 8 11 13 13 14 15 15 15 14 15 13 11 10 8 10 11 9 8 9 8 8 7 7 6 5 5 4 4 3 3 4 4 5 5 5 5 5
8 9 10 11 10 10 10 10 12 13 14 14 14 15 14 13 13 12 11 10 9 8 7 6 7 7 6 6 5 5 5 4 3 3 3 3 3 3 4 5 5 5 5 5
6 8 8 9 11 12 12 12 12 13 13 14 14 14 13 12 11 10 8 8 7 6 5 6 6 6 5 5 5 5 4 3 3 2 3 3 3 4 4 4 4 5 5 6
9 10 11 10 10 12 12 13 13 14 15 14 13 13 11 9 8 6 5 4 2 2 4 4 4 5 4 4 4 4 3 2 2 2 2 2 3 3 3 4 4 5 5 6
10 10 10 12 13 12 15 15 15 16 15 12 11 10 9 7 6 5 5 3 2 2 3 3 4 5 5 5 4 3 3 2 2 2 2 2 3 3 4 4 5 6 7 8
12 12 14 16 19 18 16 15 13 14 14 11 8 8 7 6 5 4 3 2 1 1 2 2 3 4 4 4 4 3 3 2 2 2 3 3 4 4 5 5 6 7 8 9
18 18 19 18 18 18 16 13 11 11 10 8 8 7 6 5 5 4 2 1 1 0 1 2 4 4 4 4 4 4 3 4 4 4 5 6 6 6 7 7 8 9 10 10
17 17 17 15 14 14 13 10 9 8 7 8 7 7 7 6 5 5 5 3 3 3 3 4 5 6 6 5 5 5 5 5 6 6 7 8 8 8 9 9 10 11 11 11
16 15 13 12 11 10 8 8 7 6 6 6 6 7 8 8 8 6 5 4 4 4 5 5 5 6 7 7 6 6 6 6 7 7 8 9 9 9 9 10 10 11 11 12
12 11 10 9 7 6 5 4 3 2 2 3 5 6 7 8 7 5 4 3 3 5 6 6 5 6 8 7 6 6 7 8 9 10 10 10 10 10 11 12 12 13 14 14
8 6 4 3 3 2 2 2 3 4 4 5 6 7 8 9 7 6 4 4 5 5 6 6 7 8 8 8 8 9 10 11 12 13 13 12 12 13 14 14 14 14 15 16
4 3 2 2 3 4 5 5 6 7 8 8 8 9 10 8 6 5 4 4 6 8 8 9 10 10 11 12 12 12 12 13 14 15 14 14 15 15 15 14 15 16 17 18

GFSNGP_850_spd_084.txt.gz
Wind_Speed
1 2 3 4 5 6 8 8 6 10 16 16 14 12 2 6 8 11 13 13 15 13 12 16 20 23 24 25 24 24 23 22 20 18 16 15 15 14 12 11 10 9 8 10
4 4 1 5 6 7 9 9 11 12 14 6 16 7 10 8 8 13 12 12 12 11 12 13 16 19 20 23 24 23 23 22 19 17 16 16 18 18 17 15 14 14 15 16
1 5 6 6 6 1 1 2 7 10 15 15 6 11 11 9 10 13 14 14 15 14 13 13 15 15 18 20 21 21 21 20 18 16 15 15 15 15 15 14 14 15 15 16
1 4 3 7 1 6 4 8 14 13 14 11 13 15 18 13 9 11 16 18 16 16 17 17 16 17 19 20 20 20 19 14 14 14 12 12 13 12 11 10 11 12 12 13
2 1 5 6 6 6 6 3 12 14 14 3 10 12 18 13 11 12 17 18 21 16 17 17 18 19 20 19 19 20 22 19 12 9 12 11 9 10 9 8 8 7 7 6
1 2 1 7 8 13 6 6 16 18 16 17 10 3 3 8 11 12 16 19 19 18 18 19 19 20 22 20 20 20 18 16 14 12 7 8 13 15 14 12 12 11 10 9
5 3 2 8 15 16 5 7 20 17 16 17 3 7 20 17 15 14 17 16 16 19 21 18 19 19 21 21 23 22 17 14 14 16 18 18 17 18 18 17 16 15 14 15
4 4 4 15 4 6 8 10 9 10 10 15 20 23 21 19 16 14 18 18 16 17 19 18 19 18 20 22 21 18 19 18 18 18 19 19 17 18 18 17 16 18 18 20
3 4 8 10 7 6 8 5 6 8 11 15 17 17 18 19 17 17 18 17 16 17 18 20 20 19 21 21 18 19 19 20 19 19 19 18 18 18 19 19 18 17 18 19
5 7 10 9 6 7 6 9 9 11 14 15 16 16 15 16 17 18 17 16 14 15 18 20 19 21 21 19 18 19 20 20 20 20 20 19 19 19 19 19 16 15 15 15
2 8 10 11 9 6 9 11 12 13 13 14 13 14 14 17 17 17 17 16 15 17 18 20 19 20 19 18 17 18 20 20 20 21 21 19 19 20 19 17 14 14 14 12
3 4 3 4 6 8 11 11 10 11 12 13 13 14 16 18 18 18 17 16 17 17 17 19 20 21 19 18 16 16 16 16 16 16 16 16 17 18 16 14 12 12 10 10
2 7 13 11 11 10 12 11 11 11 11 13 13 14 15 18 17 18 17 17 17 17 16 16 16 17 17 16 14 13 14 14 14 14 13 12 11 10 10 13 12 10 9 8
9 11 7 4 7 9 10 10 10 12 12 12 12 14 16 17 16 16 17 16 15 14 14 14 13 14 14 13 11 10 11 11 10 10 10 9 9 9 8 7 8 9 10 10
5 1 12 11 9 8 8 8 9 10 10 11 11 13 13 15 16 15 15 14 12 12 12 11 10 11 10 9 8 8 7 7 7 7 7 7 7 7 7 7 7 8 8 9
9 10 9 8 7 6 6 6 8 9 9 10 11 12 13 13 14 13 12 11 9 9 9 8 8 8 7 7 7 6 6 6 6 5 5 5 5 6 6 6 6 6 6 7
7 6 7 7 6 6 6 7 8 10 10 10 11 11 11 12 12 11 10 9 8 7 6 6 6 6 6 5 5 5 5 5 5 5 5 5 5 5 6 6 6 6 6 6
5 7 6 7 8 9 9 9 10 10 10 10 11 11 11 10 10 9 8 7 6 6 5 5 5 5 4 4 4 3 3 3 3 3 3 3 4 4 4 4 4 4 5 5
8 9 10 10 9 10 10 10 11 12 13 12 11 10 8 7 6 5 4 4 4 3 3 4 4 4 3 3 2 2 2 2 2 2 2 3 3 3 3 3 3 4 4 5
8 9 9 10 10 9 12 13 13 14 13 10 9 8 6 5 4 3 3 2 1 1 2 3 3 3 4 4 3 3 2 2 2 2 2 2 2 2 3 3 3 3 4 5
10 11 12 13 15 14 14 13 12 12 12 9 6 5 4 3 2 1 3 2 2 2 2 2 3 4 4 4 4 4 3 3 2 2 2 3 3 3 3 4 4 4 4 5
15 16 17 17 17 17 14 12 10 9 8 6 5 3 3 2 2 2 2 2 4 4 4 5 6 6 6 5 5 5 4 4 4 4 4 4 4 4 4 5 5 6 7 8
19 17 16 15 14 13 12 10 8 7 6 5 4 3 3 1 2 2 3 4 5 5 4 5 6 6 4 4 4 5 5 5 5 6 6 6 6 7 6 6 7 8 8 8
17 15 14 12 11 9 8 7 7 6 4 3 2 3 3 2 4 3 3 3 2 2 2 5 5 5 5 5 4 4 4 4 5 5 6 8 7 8 8 8 8 8 9 10
13 12 11 9 6 5 5 4 4 3 1 2 2 3 4 5 2 3 3 3 3 3 3 5 5 6 6 5 5 6 6 6 7 7 8 8 8 8 8 8 10 10 10 11
9 6 5 6 5 4 3 3 3 3 3 3 3 3 6 7 7 5 4 3 3 4 4 6 7 8 7 7 8 9 8 8 9 8 10 10 9 10 10 11 12 11 11 12
6 5 4 2 1 1 1 2 2 4 5 5 6 8 6 7 6 5 5 4 5 6 6 6 7 9 9 10 10 10 11 10 12 12 12 11 11 11 12 13 13 13 14 17